Regional Weather Roundup
Issued by NWS

Home | Current Version | Previous Version | Text Only | Print | Product List | Glossary On
Versions: 1 2 3 4 5 6 7 8 9 10 11 12 13 14 15 16 17 18 19 20 21 22 23 24 25 26 27 28 29 30 31 32 33 34 35 36 37 38 39 40 41 42 43 44 45 46 47 48 49 50
000
ASUS43 KLMK 041110
RWRKY
KENTUCKY REGIONAL WEATHER ROUNDUP
NATIONAL WEATHER SERVICE LOUISVILLE KY
600 AM EST SUN DEC 04 2016

NOTE "FAIR" INDICATES FEW OR NO CLOUDS BELOW 12,000 FEET
WITH NO SIGNIFICANT WEATHER AND/OR OBSTRUCTIONS TO VISIBILITY.

KYZ001>023-026-027-061>063-070>075-041200-
WESTERN AND SOUTH CENTRAL KENTUCKY

CITY           SKY/WX    TMP DP  RH WIND       PRES   REMARKS
PADUCAH        CLOUDY    39  36  89 E8        30.09F FOG     WCI  33
HENDERSON      CLOUDY    39  30  70 E7        30.14R WCI  34
OWENSBORO      LGT RAIN  40  35  83 E8        30.14F WCI  34
HOPKINSVILLE   DRIZZLE   39  39 100 E8        30.10F FOG     WCI  34
BOWLING GREEN  CLOUDY    40  38  93 NE5       30.15S
GLASGOW        RAIN      38  38 100 E3        30.14S
$$

KYZ024-025-028>034-038-045-046-053-041200-
NORTH CENTRAL KENTUCKY

CITY           SKY/WX    TMP DP  RH WIND       PRES   REMARKS
LOUISVILLE/SDF CLOUDY    41  29  62 E6        30.17F
LOUISVILLE/LOU CLOUDY    41  30  65 NE5       30.18F
FORT KNOX      CLOUDY    38  33  84 E5        30.14F WCI  34
$$

KYZ035>037-039>044-047>052-055>060-089>105-041200-
NORTHEAST KENTUCKY

CITY           SKY/WX    TMP DP  RH WIND       PRES   REMARKS
LEXINGTON      CLOUDY    39  29  67 E7        30.18F WCI  34
COVINGTON      CLOUDY    37  30  75 E6        30.20F WCI  32
FRANKFORT      CLOUDY    39  30  70 NE6       30.17F WCI  35
$$

KYZ054-064>069-076>088-106>120-041200-
SOUTHEAST KENTUCKY

CITY           SKY/WX    TMP DP  RH WIND       PRES   REMARKS
JACKSON        CLOUDY    36  28  73 CALM      30.17F
LONDON         LGT RAIN  37  32  82 SE3       30.18F
SOMERSET       LGT RAIN  36  36 100 SE3       30.18F
MIDDLESBORO    LGT RAIN  38  37  98 CALM      30.20F
MONTICELLO     LGT RAIN  38  36  92 E3        30.18F
$$





USA.gov is the U.S. government's official web portal to all federal, state and local government web resources and services.